When you browse on this site, cookies collect data to enhance your experience and personalize the content and advertising you see.
Visit our Privacy Policy to learn more. By continuing to use the site, you agree to this use of cookies and data.
  • In Hungary
  • List of Countries
  • For 7 days
  • Water Temperature
  • Weather Map
  • News
  • Weather Widgets
  • user-avatar
    Login

    Hourly Weather Nikoia

    Today, 20 November, Wednesday

    Time Temperature Precipitation Wind Pressure Humidity
    00:00 +24°C° 0 mm 2 mps 746 mmHg 91%
    01:00 +24°C° 0 mm 2 mps 746 mmHg 91%
    02:00 +24°C° 0 mm 2 mps 746 mmHg 91%
    03:00 +24°C° 0 mm 2 mps 746 mmHg 92%
    04:00 +24°C° 0 mm 2 mps 746 mmHg 92%
    05:00 +24°C° 0 mm 2 mps 746 mmHg 92%
    06:00 +24°C° 0 mm 2 mps 746 mmHg 92%
    07:00 +25°C° 0 mm 2 mps 747 mmHg 87%
    08:00 +27°C° 0 mm 2 mps 748 mmHg 82%
    09:00 +29°C° 0 mm 3 mps 748 mmHg 77%
    10:00 +29°C° 0 mm 3 mps 748 mmHg 74%
    11:00 +30°C° 0 mm 3 mps 747 mmHg 72%
    12:00 +31°C° 0 mm 3 mps 746 mmHg 69%
    13:00 +31°C° 0.1 mm 2 mps 746 mmHg 70%
    14:00 +31°C° 0.1 mm 2 mps 745 mmHg 71%
    15:00 +31°C° 0.1 mm 1 mps 745 mmHg 72%
    16:00 +29°C° 0.7 mm 1 mps 745 mmHg 78%
    17:00 +28°C° 0.7 mm 1 mps 745 mmHg 84%
    18:00 +26°C° 0.7 mm 1 mps 745 mmHg 89%
    19:00 +26°C° 0.1 mm 1 mps 746 mmHg 90%
    20:00 +25°C° 0.1 mm 1 mps 746 mmHg 91%
    21:00 +25°C° 0.1 mm 1 mps 747 mmHg 91%
    22:00 +25°C° 0 mm 1 mps 747 mmHg 92%
    23:00 +24°C° 0 mm 1 mps 746 mmHg 92%

    Tomorrow, 21 November, Thursday

    Time Temperature Precipitation Wind Pressure Humidity
    00:00 +24°C° 0 mm 1 mps 746 mmHg 92%
    01:00 +24°C° 0 mm 1 mps 746 mmHg 92%
    02:00 +24°C° 0 mm 1 mps 746 mmHg 92%
    03:00 +24°C° 0 mm 1 mps 746 mmHg 92%
    04:00 +24°C° 0 mm 1 mps 746 mmHg 92%
    05:00 +24°C° 0 mm 1 mps 746 mmHg 92%
    06:00 +24°C° 0 mm 1 mps 747 mmHg 92%
    07:00 +25°C° 0 mm 1 mps 747 mmHg 87%
    08:00 +27°C° 0 mm 1 mps 748 mmHg 81%
    09:00 +29°C° 0 mm 2 mps 748 mmHg 76%
    10:00 +30°C° 0 mm 1 mps 747 mmHg 72%
    11:00 +31°C° 0 mm 1 mps 747 mmHg 68%
    12:00 +32°C° 0 mm 1 mps 746 mmHg 64%
    13:00 +31°C° 0.1 mm 1 mps 746 mmHg 66%
    14:00 +31°C° 0.1 mm 1 mps 745 mmHg 69%
    15:00 +31°C° 0.1 mm 1 mps 745 mmHg 71%
    16:00 +29°C° 0.3 mm 1 mps 745 mmHg 78%
    17:00 +27°C° 0.3 mm 1 mps 745 mmHg 84%
    18:00 +26°C° 0.3 mm 1 mps 745 mmHg 91%
    19:00 +23°C° 0.1 mm 0 mps 746 mmHg 91%
    20:00 +23°C° 0.1 mm 0 mps 746 mmHg 92%
    21:00 +23°C° 0.1 mm 0 mps 747 mmHg 92%
    22:00 +23°C° 0.1 mm 0 mps 747 mmHg 93%
    23:00 +22°C° 0.1 mm 0 mps 746 mmHg 93%

    Day after tomorrow, 22 November, Friday

    Time Temperature Precipitation Wind Pressure Humidity
    00:00 +24°C° 0.1 mm 1 mps 746 mmHg 94%
    01:00 +24°C° 0 mm 1 mps 746 mmHg 94%
    02:00 +24°C° 0 mm 1 mps 746 mmHg 94%
    03:00 +24°C° 0 mm 1 mps 745 mmHg 95%
    04:00 +24°C° 0 mm 1 mps 746 mmHg 94%
    05:00 +22°C° 0 mm 0 mps 746 mmHg 94%
    06:00 +22°C° 0 mm 0 mps 746 mmHg 94%
    07:00 +25°C° 0 mm 1 mps 747 mmHg 88%
    08:00 +27°C° 0 mm 1 mps 747 mmHg 81%
    09:00 +29°C° 0 mm 1 mps 748 mmHg 75%
    10:00 +29°C° 0 mm 1 mps 747 mmHg 72%
    11:00 +30°C° 0 mm 1 mps 747 mmHg 70%
    12:00 +31°C° 0 mm 1 mps 746 mmHg 67%
    13:00 +30°C° 0.5 mm 1 mps 746 mmHg 71%
    14:00 +30°C° 0.5 mm 2 mps 745 mmHg 75%
    15:00 +29°C° 0.5 mm 2 mps 745 mmHg 79%
    16:00 +28°C° 0.5 mm 1 mps 745 mmHg 83%
    17:00 +27°C° 0.5 mm 1 mps 745 mmHg 87%
    18:00 +23°C° 0.5 mm 0 mps 745 mmHg 91%
    19:00 +23°C° 0.1 mm 0 mps 746 mmHg 92%
    20:00 +23°C° 0.1 mm 0 mps 746 mmHg 92%
    21:00 +23°C° 0.1 mm 0 mps 747 mmHg 92%
    22:00 +23°C° 0 mm 0 mps 746 mmHg 93%
    23:00 +22°C° 0 mm 0 mps 746 mmHg 93%

    23 November, Saturday

    Time Temperature Precipitation Wind Pressure Humidity
    00:00 +22°C° 0 mm 0 mps 746 mmHg 94%
    01:00 +22°C° 0 mm 0 mps 746 mmHg 94%
    02:00 +22°C° 0 mm 0 mps 745 mmHg 94%
    03:00 +22°C° 0 mm 0 mps 745 mmHg 95%
    04:00 +22°C° 0 mm 0 mps 745 mmHg 94%
    05:00 +22°C° 0 mm 0 mps 746 mmHg 94%
    06:00 +22°C° 0 mm 0 mps 746 mmHg 94%
    07:00 +23°C° 0 mm 0 mps 747 mmHg 88%
    08:00 +25°C° 0 mm 0 mps 747 mmHg 81%
    09:00 +29°C° 0 mm 1 mps 747 mmHg 74%
    10:00 +29°C° 0 mm 1 mps 747 mmHg 72%
    11:00 +30°C° 0 mm 1 mps 747 mmHg 70%
    12:00 +31°C° 0 mm 1 mps 746 mmHg 68%
    13:00 +30°C° 0.2 mm 1 mps 746 mmHg 70%
    14:00 +30°C° 0.2 mm 1 mps 745 mmHg 73%
    15:00 +30°C° 0.2 mm 2 mps 744 mmHg 75%
    16:00 +28°C° 0.3 mm 1 mps 745 mmHg 80%
    17:00 +27°C° 0.3 mm 1 mps 745 mmHg 85%
    18:00 +26°C° 0.3 mm 1 mps 745 mmHg 90%
    19:00 +24°C° 0.1 mm 0 mps 745 mmHg 91%
    20:00 +23°C° 0.1 mm 0 mps 746 mmHg 91%
    21:00 +23°C° 0.1 mm 0 mps 746 mmHg 92%
    22:00 +23°C° 0 mm 0 mps 746 mmHg 92%
    23:00 +22°C° 0 mm 0 mps 746 mmHg 93%

    24 November, Sunday

    Time Temperature Precipitation Wind Pressure Humidity
    00:00 +22°C° 0 mm 0 mps 746 mmHg 94%
    01:00 +22°C° 0 mm 0 mps 745 mmHg 94%
    02:00 +22°C° 0 mm 0 mps 745 mmHg 95%
    03:00 +23°C° 0 mm 1 mps 744 mmHg 95%
    04:00 +21°C° 0 mm 0 mps 745 mmHg 95%
    05:00 +21°C° 0 mm 0 mps 745 mmHg 95%
    06:00 +21°C° 0 mm 0 mps 746 mmHg 95%
    07:00 +23°C° 0 mm 0 mps 746 mmHg 88%
    08:00 +27°C° 0 mm 1 mps 746 mmHg 81%
    09:00 +28°C° 0 mm 1 mps 747 mmHg 75%
    10:00 +29°C° 0 mm 1 mps 746 mmHg 72%
    11:00 +30°C° 0 mm 1 mps 746 mmHg 69%
    12:00 +31°C° 0 mm 1 mps 745 mmHg 66%
    13:00 +31°C° 0.1 mm 1 mps 745 mmHg 66%
    14:00 +31°C° 0.1 mm 1 mps 744 mmHg 67%
    15:00 +31°C° 0.1 mm 1 mps 744 mmHg 68%
    16:00 +29°C° 0.4 mm 1 mps 744 mmHg 75%
    17:00 +27°C° 0.4 mm 1 mps 744 mmHg 83%
    18:00 +26°C° 0.4 mm 1 mps 744 mmHg 91%
    19:00 +25°C° 0 mm 1 mps 745 mmHg 91%
    20:00 +23°C° 0 mm 0 mps 745 mmHg 92%
    21:00 +23°C° 0 mm 0 mps 745 mmHg 92%
    22:00 +23°C° 0 mm 0 mps 745 mmHg 92%
    23:00 +22°C° 0 mm 0 mps 745 mmHg 93%

    25 November, Monday

    Time Temperature Precipitation Wind Pressure Humidity
    00:00 +22°C° 0 mm 0 mps 745 mmHg 93%
    01:00 +22°C° 0 mm 0 mps 744 mmHg 93%
    02:00 +22°C° 0 mm 0 mps 744 mmHg 93%
    03:00 +22°C° 0 mm 0 mps 744 mmHg 93%
    04:00 +22°C° 0 mm 0 mps 744 mmHg 93%
    05:00 +22°C° 0 mm 0 mps 744 mmHg 93%
    06:00 +22°C° 0 mm 0 mps 744 mmHg 93%
    07:00 +25°C° 0 mm 1 mps 745 mmHg 87%
    08:00 +27°C° 0 mm 1 mps 745 mmHg 81%
    09:00 +29°C° 0 mm 1 mps 745 mmHg 74%
    10:00 +30°C° 0 mm 1 mps 745 mmHg 71%
    11:00 +30°C° 0 mm 1 mps 744 mmHg 68%
    12:00 +31°C° 0 mm 1 mps 744 mmHg 65%
    13:00 +31°C° 0.1 mm 1 mps 743 mmHg 67%
    14:00 +31°C° 0.1 mm 1 mps 742 mmHg 69%
    15:00 +30°C° 0.1 mm 1 mps 742 mmHg 71%
    16:00 +29°C° 0.4 mm 1 mps 742 mmHg 78%
    17:00 +27°C° 0.4 mm 1 mps 742 mmHg 85%
    18:00 +26°C° 0.4 mm 1 mps 743 mmHg 92%
    19:00 +26°C° 0.3 mm 1 mps 743 mmHg 92%
    20:00 +24°C° 0.3 mm 0 mps 744 mmHg 92%
    21:00 +23°C° 0.3 mm 0 mps 744 mmHg 92%
    22:00 +23°C° 0.1 mm 0 mps 744 mmHg 92%
    23:00 +23°C° 0.1 mm 0 mps 744 mmHg 93%
    Show more